Eureka - southern half: Past 24 Hour Conditions

 

Cape Dorset Airport

04:00 PM EDT 01 October 2014
This table is a summary of hourly weather conditions for the past 24 hours.
Date / Time
(EDT)
Wind(knots) Conditions Visibility(km) Pressure(kPa) Air tempC) Relative humidity(%) Dew pointC) Wind Chill
01 October 2014
16:00 W 16 Cloudy 24 101.7 -3 74 -7 -11
15:00 W 15 Light Snow 24 101.7 -4 76 -7 -11
14:00 W 16 Light Snow 24 101.7 -4 80 -7 -12
13:00 WNW 15 Light Snow 24 101.7 -4 81 -7 -12
12:00 W 15 gust 21 Light Freezing Drizzle 24 101.7 -4 84 -6 -12
11:00 WNW 13 Light Snow 24 101.7 -4 83 -7 -11
10:00 WNW 11 Light Snow 24 101.8 -4 77 -8 -11
9:00 WNW 15 gust 23 Light Snow 24 101.7 -4 68 -9 -11
8:00 WNW 18 Light Snow 24 101.7 -4 69 -9 -12
7:00 WNW 16 Cloudy 16 101.7 -4 70 -8 -11
6:00 WNW 13 Cloudy 16 101.7 -4 68 -9 -10
5:00 W 14 gust 20 Light Snow 16 101.7 -4 78 -7 -11
4:00 WNW 13 gust 19 Cloudy 16 101.7 -4 74 -8 -10
3:00 W 16 Cloudy 16 101.6 -4 80 -7 -12
2:00 WNW 14 gust 20 Light Snow 16 101.6 -4 82 -7 -11
1:00 WNW 11 gust 17 Cloudy 16 101.6 -4 75 -8 -10
0:00 WNW 15 Cloudy 16 101.6 -4 70 -9 -12
30 September 2014
23:00 WNW 15 gust 20 Cloudy 16 101.6 -4 76 -8 -12
22:00 WNW 15 Cloudy 16 101.6 -4 72 -9 -12
21:00 WNW 19 gust 24 Cloudy 16 101.5 -4 70 -9 -13
20:00 WNW 18 gust 25 Cloudy 16 101.5 -4 74 -8 -13
19:00 WNW 16 gust 21 Mostly Cloudy 16 101.4 -4 73 -8 -12
18:00 WNW 21 gust 29 Light Snow 16 101.4 -4 75 -8 -13
17:00 WNW 20 gust 30 Partly Cloudy 16 101.3 -4 70 -9 -12
16:00 WNW 22 gust 28 Light Snow 24 101.3 -4 66 -9 -12
 
Map of Arctic - Eastern Arctic marine weather areas Baker Lake Airport Chesterfield Inlet Airport Coral Harbour Airport Gjoa Haven Airport Kugaaruk Airport Rankin Inlet Airport Shepherd Bay Airport Whale Cove Airport Arctic Bay Brevoort Island Qikiqtarjuaq Airport Cape Dorset Airport Cape Dyer Cape Hooper Clyde Airport Grise Fiord Airport Hall Beach Airport Igloolik Airport Iqaluit Airport Longstaff Bluff Pangnirtung Airport Pond Inlet Airport Repulse Bay Airport Resolute Airport Resolution Island Rowley Island Airport Taloyoak Airport Wager Bay Akulivik Airport Ivujivik Airport Puvirnituq Airport Kangiqsujuaq Airport Kangirsuk Airport Quaqtaq Airport Tasiujaq Airport Cape Kakkiviak Cape Kiglapait Nain Airport Saglek Cape Mercy Kimmirut Airport Aupaluk Airport Salluit Airport Kangiqsualujjuaq Airport Fort Ross
Legend: buoyBuoy land stationLand Station